This is the latest recevied weather packets stored in our database for station/object EI8EPB-1. If no packets are shown the sender has not sent any weather packets the latest 10 day(s).
| Time | Temp. | Humidity | Pressure | Rain* | Wind** | Luminosity | Snow |
|---|---|---|---|---|---|---|---|
| 1778081103 | 13.89° C | 72% | 1012.1 hPa | 0 mm | - | - | - |
| 1778080803 | 13.89° C | 71% | 1012.1 hPa | 0 mm | - | - | - |
| 1778080503 | 14.44° C | 69% | 1012.1 hPa | 0 mm | - | - | - |
| 1778080203 | 15° C | 66% | 1012.1 hPa | 0 mm | - | - | - |
| 1778079903 | 15° C | 63% | 1012.1 hPa | 0 mm | - | - | - |
| 1778079604 | 15° C | 62% | 1012.1 hPa | 0 mm | - | - | - |
| 1778079303 | 15.56° C | 62% | 1012.2 hPa | 0 mm | - | - | - |
| 1778079004 | 16.11° C | 64% | 1012.1 hPa | 0 mm | - | - | - |
| 1778078703 | 16.67° C | 61% | 1012.1 hPa | 0 mm | - | - | - |
| 1778078403 | 17.22° C | 64% | 1012.1 hPa | 0 mm | - | - | - |
| 1778078103 | 17.22° C | 65% | 1012.2 hPa | 0 mm | - | - | - |
| 1778077803 | 16.67° C | 69% | 1012.2 hPa | 0 mm | - | - | - |
| 1778077503 | 16.11° C | 69% | 1012.2 hPa | 0 mm | - | - | - |
| 1778077203 | 16.11° C | 67% | 1012.2 hPa | 0 mm | - | - | - |
| 1778076903 | 15.56° C | 69% | 1012.3 hPa | 0 mm | - | - | - |
| 1778076604 | 15° C | 67% | 1012.3 hPa | 0 mm | - | - | - |
| 1778076303 | 14.44° C | 69% | 1012.3 hPa | 0 mm | - | - | - |
| 1778076004 | 14.44° C | 70% | 1012.3 hPa | 0 mm | - | - | - |
| 1778075703 | 14.44° C | 71% | 1012.4 hPa | 0 mm | - | - | - |
| 1778075403 | 14.44° C | 70% | 1012.4 hPa | 0 mm | - | - | - |
| 1778075104 | 14.44° C | 70% | 1012.4 hPa | 0 mm | - | - | - |
| 1778074803 | 15° C | 69% | 1012.4 hPa | 0 mm | - | - | - |
| 1778074503 | 15° C | 65% | 1012.4 hPa | 0 mm | - | - | - |
| 1778074204 | 15.56° C | 58% | 1012.5 hPa | 0 mm | - | - | - |
| 1778073903 | 15° C | 60% | 1012.5 hPa | 0 mm | - | - | - |
* Rain latest hour (hover to see other rain measurements)
** Current wind speed in m/s (hover to see current wind gust speed)